Flag for U.S.A. Weather past 2 weeks in Concord, California, U.S.A.

Now
63 °F

Clear.


Feels Like: 63 °F
Forecast: 62 / 83 °F
Wind: 5 mph from North

Location: Buchanan Field

Current Time: Sep 2, 2014 at 3:37:35 AM

Latest Report: Sep 2, 2014 at 2:53 AM


Visibility: 10 mi

Pressure: 29.71 "Hg

Humidity: 81%

Dew point: 57 °F

Location of ConcordLocation

Historic Weather in Concord — Graph

°F

Concord temperature yesterday

Maximum temperature yesterday: 96 °F (at 4:53 PM)
Minimum temperature yesterday: 59 °F (at 6:53 AM)
Average temperature yesterday: 77 °F

Past Weeks' High & Low Weather Summary

 TemperatureHumidityPressure
High96 °F (Sep 1, 4:53 PM)90% (Aug 18, 3:53 AM)30.02 "Hg (Aug 18, 3:53 AM)
Low55 °F (Aug 23, 5:53 AM)16% (Aug 30, 1:53 PM)29.67 "Hg (Sep 1, 6:53 PM)
Average70 °F62%29.85 "Hg
* Reported Aug 18 1:53 AM — Sep 2 1:53 AM, Concord, Weather by CustomWeather, © 2014

Note: Actual official high and low records may vary slightly from our data, if they occured in-between our weather recording intervals... More about our weather records

Advertising

Concord weather history for previous 24 hours

 ConditionsComfort  
Time TempWeatherWind HumidityBarometerVisibility
1:53 AM
Sep 2
64 °FClear.5 mph78%29.71 "Hg10 mi
12:53 AM66 °FClear.5 mph73%29.71 "Hg10 mi
11:53 PM
Sep 1
73 °FClear.7 mph43%29.71 "Hg10 mi
10:53 PM76 °FClear.6 mph40%29.71 "Hg10 mi
9:53 PM75 °FClear.No wind48%29.71 "Hg10 mi
8:53 PM82 °FClear.8 mph32%29.70 "Hg10 mi
7:53 PM85 °FSunny.5 mph28%29.69 "Hg10 mi
6:53 PM90 °FSunny.13 mph24%29.67 "Hg10 mi
5:53 PM94 °FSunny.14 mph21%29.68 "Hg10 mi
4:53 PM96 °FExtremely hot.13 mph19%29.69 "Hg10 mi
3:53 PM95 °FSunny.9 mph18%29.70 "Hg10 mi
2:53 PM94 °FSunny.10 mph20%29.72 "Hg7 mi
1:53 PM90 °FSunny.9 mph24%29.75 "Hg10 mi
12:53 PM87 °FSunny.8 mph30%29.77 "Hg10 mi
11:53 AM84 °FSunny.6 mph35%29.79 "Hg10 mi
10:53 AM80 °FSunny.5 mph44%29.80 "Hg10 mi
9:53 AM74 °FSunny.No wind52%29.80 "Hg10 mi
8:53 AM69 °FSunny.3 mph59%29.80 "Hg10 mi
7:53 AM63 °FSunny.No wind75%29.80 "Hg10 mi
6:53 AM59 °FClear.No wind81%29.79 "Hg10 mi
5:53 AM61 °FClear.No wind75%29.78 "Hg10 mi
4:53 AM62 °FClear.No wind73%29.78 "Hg10 mi
3:53 AM64 °FClear.7 mph68%29.77 "Hg10 mi
Weather by CustomWeather, © 2014

See weather overviewHow to use our weather pages